Powrót do katalogu

CZ-2D DEB

AktywnySSO
NORAD 43402·DEBRIS·🇨🇳 China

Wystrzelony Sep 29, 2012 z Jiuquan Satellite Launch Center

Loading…

Następne Przeloty (najbliższe 24 godziny)

TLE

Starzejące sięSource: Space-Track

Epoka: Sep 9, 2026, 11:43 UTC

1 43402U 12052B   26252.48837445  .00002191  00000-0  55583-3 0  9995
2 43402  98.0823 344.6012 0204226 150.5893 210.6975 14.39959301666903

Śledź CZ-2D DEB w czasie rzeczywistym z AllMySat

Download on the App Store